Tracking 30918 objects as of 2-Jul-2025
HD Live streaming from Space Station
objects crossing your sky now

STARLINK-2752

Track STARLINK-2752 now!
10-day predictions
STARLINK-2752 is classified as:


NORAD ID: 48692
Int'l Code: 2021-044BG
Perigee: 553.3 km
Apogee: 555.4 km
Inclination: 53.1 °
Period: 95.6 minutes
Semi major axis: 6925 km
RCS: Unknown
Launch date: May 26, 2021
Source: United States (US)
Launch site: AIR FORCE EASTERN TEST RANGE (AFETR)
Your satellite tracking list
Your tracking list is empty




NASA's NSSDC Master Catalog

Two Line Element Set (TLE):
1 48692U 21044BG  25183.06386399  .00000311  00000-0  39815-4 0  9998
2 48692  53.0546 121.8438 0001510  82.7938 277.3222 15.06388972227404
Source of the keplerian elements: AFSPC